{"data":{"norad_id":66504,"intl_designator":"2025-263V","name":"STARLINK-35916","alt_names":[],"object_type":"PAYLOAD","status":"ACTIVE","operator":null,"country":"US","launch_date":"2025-11-15","launch_site_code":"AFETR","launch_vehicle":null,"mission":null,"orbit_class":"UNKNOWN","rcs_meters":null,"size_class":null,"mass_kg":null,"dimensions":null,"purposes":["comms"],"wikipedia_slug":null,"has_3d_model":false,"image_url":null,"decayed_at":null,"tle_current":{"epoch":"2026-05-25T02:32:40.614432Z","epoch_age_seconds":59264,"freshness":"FRESH","line1":"1 66504U 25263V   26145.10602563  .00007823  00000+0  29345-3 0  9995","line2":"2 66504  42.9994 282.8167 0001394 265.2516  94.8177 15.27586310 30544","mean_motion":15.2758631,"eccentricity":0.0001394,"inclination_deg":42.9994,"raan_deg":282.8167,"arg_perigee_deg":265.2516,"mean_anomaly_deg":94.8177,"bstar":0.00029345,"rev_number":3054,"period_min":94.26635932604,"perigee_km":482.07375498676,"apogee_km":483.9866484026,"semimajor_km":6861.1672016947,"source":"CELESTRAK","updated_at":"2026-05-25T13:38:21.246115Z"}}}